Location: Jastrz?bniki
(50.3667°N, 20.3833°E)
Time: 11:16:58
(UTC+00:00)

Cosmos 1869 Rocket - Pass Details

Date: 05 August 2024
Orbit: 600 x 629 km, 82.5° (Epoch: 06 September)

Event Time Altitude Azimuth Distance (km) Brightness Sun altitude
Exits shadow 01:59:11 - 180° (S) 2,554 6.3 -10.4°
Reaches altitude 10° 02:00:33 10° 178° (S) 2,000 5.8 -10.2°
Maximum altitude 02:04:57 67° 97° (E) 683 3.9 -9.7°
Drops below altitude 10° 02:09:21 10° 15° (NNE) 2,001 7.1 -9.1°
Sets 02:11:35 0° 13° (NNE) 2,907 8.0 -8.9°
